Location: Arboyeti
(42.1122°N, 44.6017°E)
Time: 05:49:31
(UTC+00:00)

SL-4 R/B - Pass Details

Date: 19 April 2021
Orbit: 427 x 663 km, 51.6° (Epoch: 09 May)

Event Time Altitude Azimuth Distance (km) Brightness Sun altitude
Rises 16:53:03 0° 190° (S) 2,722 5.4 -12.1°
Reaches altitude 10° 16:55:47 10° 171° (S) 1,881 4.4 -12.6°
Enters shadow 16:57:48 17° 144° (SE) 1,516 3.7 -12.9°
